Home   Weather   Barrie   Past weeks

Flag for Canada Past Weather in Barrie, Ontario, Canada — Yesterday and Last 2 Weeks

Now
21 °F

Passing clouds.


Feels Like: 21 °F
Forecast: 22 / 32 °F
Wind: No wind

Location: Borden

Current Time: Jan 17, 2017 at 2:11:20 am

Latest Report: Jan 17, 2017 at 1:00 am


Visibility: 9 mi

Pressure: 30.19 "Hg

Humidity: 80%

Dew Point: 16 °F

Location of BarrieLocation

Past Weather in Barrie — Graph

°F

Barrie Temperature Yesterday

Maximum temperature yesterday: 34 °F (at 12:00 pm)
Minimum temperature yesterday: 18 °F (at 1:00 am)
Average temperature yesterday: 26 °F

High & Low Weather Summary for the Past Weeks

 TemperatureHumidityPressure
High43 °F (Jan 10, 10:33 pm)100% (Jan 2, 2:00 am)30.81 "Hg (Jan 2, 2:00 am)
Low-4 °F (Jan 7, 7:00 am)56% (Jan 16, 4:00 pm)29.35 "Hg (Jan 10, 11:18 pm)
Average24 °F81%30.06 "Hg
* Reported Jan 2 12:00 am — Jan 17 12:00 am, Barrie, Weather by CustomWeather, © 2017

Note: Actual official high and low records may vary slightly from our data, if they occured in-between our weather recording intervals... More about our weather records

Advertising

Barrie Weather History for the Previous 24 Hours

Scroll right to see more
 ConditionsComfort  
Time TempWeatherWind HumidityBarometerVisibility
12:00 am
Tue, Jan 17
23 °FClear.No wind74%30.21 "Hg9 mi
11:00 pm
Mon, Jan 16
19 °FClear.2 mph79%30.24 "Hg9 mi
10:00 pm23 °FClear.2 mph74%30.25 "Hg9 mi
9:00 pm23 °FClear.6 mph74%30.26 "Hg9 mi
8:00 pm28 °FClear.2 mph64%30.26 "Hg9 mi
7:00 pm28 °FClear.No wind64%30.27 "Hg9 mi
6:00 pm27 °FClear.3 mph69%30.28 "Hg9 mi
5:00 pm30 °FPassing clouds.3 mph64%30.27 "Hg9 mi
4:00 pm34 °FSunny.7 mph56%30.26 "Hg9 mi
3:00 pm34 °FPassing clouds.6 mph60%30.26 "Hg9 mi
2:00 pm34 °FPassing clouds.9 mph60%30.28 "Hg9 mi
1:00 pm34 °FPassing clouds.9 mph60%30.29 "Hg9 mi
12:00 pm34 °FPassing clouds.10 mph60%30.30 "Hg9 mi
11:00 am32 °FSunny.13 mph69%30.33 "Hg9 mi
10:00 am27 °FPassing clouds.7 mph80%30.33 "Hg9 mi
9:00 am25 °FSunny.7 mph80%30.33 "Hg9 mi
8:00 am25 °FSunny.5 mph80%30.32 "Hg8 mi
7:00 am19 °FClear.9 mph93%30.33 "Hg5 mi
6:00 am18 °FClear.6 mph93%30.32 "Hg3 mi
5:00 am19 °FClear.7 mph86%30.32 "Hg3 mi
4:00 am21 °FClear.3 mph93%30.32 "Hg4 mi
3:00 am21 °FClear.12 mph93%30.34 "Hg5 mi
2:00 am21 °FClear.6 mph86%30.34 "Hg8 mi
Weather by CustomWeather, © 2017

See weather overviewHow to use our weather pages